Location: Strawberry
(45.6646°N, 111.9596°W)
Time: 19:45:51
(UTC+00:00)

N. Korean satellite - Visible Passes

Search period start: 17 August 2022 00:00
Search period end: 27 August 2022 00:00
Orbit: 433 x 469 km, 97.3° (Epoch: 17 August)

Date Brightness Start Highest point End Pass type
(mag) Time Alt. Az. Time Alt. Az. Time Alt. Az.
19 Aug 10.0 11:36:22 10° ENE 11:37:15 11° E 11:38:08 10° ESE visible
21 Aug 9.4 11:58:17 10° NE 12:00:56 20° E 12:03:34 10° SE visible
24 Aug 9.6 11:47:27 10° NE 11:49:30 15° E 11:51:32 10° SE visible
26 Aug 8.9 12:09:52 10° NE 12:12:53 27° E 12:15:53 10° SSE visible
